Weather History for KFLL - October, 2010

Change the Weather History Date:

Friday, October 1, 2010

  Actual Average Record
Temperature  
Mean Temperature 79 °F 82 °F  
Max Temperature 86 °F 88 °F 94 °F (1980)
Min Temperature 72 °F 77 °F 55 °F (1920)
Degree Days  
Heating Degree Days 0 0  
Month to date heating degree days 0 0  
Since 1 July heating degree days 0 0  
Cooling Degree Days 14 18  
Month to date cooling degree days 14 18  
Year to date cooling degree days 3499 3730  
Growing Degree Days 31 (Base 50)    
Moisture  
Dew Point 66 °F    
Average Humidity 64    
Maximum Humidity 84    
Minimum Humidity 43    
Precipitation  
Precipitation 0.00 in 0.28 in 5.50 in (1954)
Month to date precipitation 0.00 0.28  
Year to date precipitation 54.25 49.94  
Snow  
Snow 0.00 in - - ()
Month to date snowfall 0.0  
Since 1 July snowfall 0.0  
Since 1 September snowfall 0.0  
Snow Depth 0.00 in    
Sea Level Pressure  
Sea Level Pressure 29.74 in    
Wind  
Wind Speed 5 mph (WNW)    
Max Wind Speed 13 mph    
Max Gust Speed 16 mph    
Visibility 10 miles    
Events      
T = Trace of Precipitation, MM = Missing Value Source: NWS Daily Summary

Daily Weather History Graph

Daily Weather History Graph

Search for Another Location

Airport or City:

Trip Planner

Search our weather history database for the weather conditions in past years. The results will help you decide how hot, cold, wet, or windy it might be!

Date:

Astronomy

Oct. 01, 2010 Rise Set
Actual Time 7:12 AM EDT 7:07 PM EDT
Civil Twilight 6:49 AM EDT 7:30 PM EDT
Nautical Twilight 6:23 AM EDT 7:56 PM EDT
Astronomical Twilight 5:56 AM EDT 8:23 PM EDT
Moon 12:29 AM EDT (10/1) 2:33 PM EDT (10/1)
Length of Visible Light 12h 40m
Length of Day
11h 54m
Last Quarter, 44% of the Moon is Illuminated
Oct 1
Last Quarter
Oct 7
New
Oct 14
First Quarter
Oct 22
Full
Oct 30
Last Quarter

Hourly Weather History & Observations

Time (EDT) Temp. Heat Index Dew Point Humidity Pressure Visibility Wind Dir Wind Speed Gust Speed Precip Events Conditions
12:53 AM 79.3 °F - 71.1 °F 76% 29.74 in 10.0 mi WNW 5.8 mph - N/A   Mostly Cloudy
1:53 AM 75.9 °F - 68.0 °F 76% 29.73 in 10.0 mi NW 5.8 mph - N/A   Partly Cloudy
2:53 AM 75.9 °F - 68.0 °F 76% 29.73 in 10.0 mi NW 5.8 mph - N/A   Partly Cloudy
3:53 AM 74.1 °F - 66.9 °F 78% 29.72 in 10.0 mi NW 6.9 mph - N/A   Partly Cloudy
4:53 AM 73.0 °F - 66.0 °F 79% 29.72 in 10.0 mi NW 6.9 mph - N/A   Clear
5:53 AM 72.3 °F - 66.9 °F 83% 29.73 in 10.0 mi WNW 3.5 mph - N/A   Clear
6:53 AM 72.0 °F - 66.9 °F 84% 29.75 in 10.0 mi NW 5.8 mph - N/A   Clear
7:53 AM 72.3 °F - 66.9 °F 83% 29.76 in 10.0 mi WNW 4.6 mph - N/A   Partly Cloudy
8:53 AM 77.0 °F - 68.0 °F 74% 29.78 in 10.0 mi NW 5.8 mph - N/A   Partly Cloudy
9:53 AM 82.9 °F 85.8 °F 68.0 °F 60% 29.78 in 10.0 mi NNW 10.4 mph - N/A   Partly Cloudy
10:53 AM 87.1 °F 89.2 °F 66.0 °F 49% 29.78 in 10.0 mi NNW 6.9 mph - N/A   Partly Cloudy
11:53 AM 90.0 °F 91.3 °F 64.0 °F 42% 29.77 in 10.0 mi Variable 6.9 mph - N/A   Clear
12:53 PM 84.0 °F 84.5 °F 62.1 °F 47% 29.76 in 10.0 mi Variable 5.8 mph - N/A   Partly Cloudy
1:53 PM 84.9 °F 85.0 °F 61.0 °F 44% 29.73 in 10.0 mi WSW 8.1 mph - N/A   Partly Cloudy
2:53 PM 84.9 °F 85.0 °F 61.0 °F 44% 29.71 in 10.0 mi West 9.2 mph - N/A   Partly Cloudy
3:53 PM 84.9 °F 84.4 °F 59.0 °F 41% 29.70 in 10.0 mi West 8.1 mph - N/A   Clear
4:53 PM 84.9 °F 85.0 °F 61.0 °F 44% 29.70 in 10.0 mi Variable 3.5 mph - N/A   Partly Cloudy
5:53 PM 82.9 °F 85.4 °F 66.9 °F 58% 29.71 in 10.0 mi ESE 9.2 mph - N/A   Partly Cloudy
6:53 PM 81.0 °F 83.0 °F 66.0 °F 60% 29.73 in 10.0 mi ESE 5.8 mph - N/A   Partly Cloudy
7:53 PM 79.0 °F - 69.1 °F 72% 29.74 in 10.0 mi SE 3.5 mph - N/A   Clear
8:53 PM 79.0 °F - 68.0 °F 69% 29.77 in 10.0 mi Calm Calm - N/A   Clear
9:53 PM 78.1 °F - 69.1 °F 74% 29.78 in 10.0 mi Calm Calm - N/A   Clear
10:53 PM 77.0 °F - 70.0 °F 79% 29.78 in 10.0 mi Calm Calm - N/A   Clear
11:53 PM 75.9 °F - 70.0 °F 82% 29.77 in 10.0 mi Calm Calm - N/A   Partly Cloudy